GFSNIL_prec_snow_147.txt.gz
Snowfall_Accumulation
0.0 0.0 0.0 0.0 0.0 0.0 0.0 0.0 0.0 0.0 0.0 0.0 0.0 0.0 0.0 0.0 0.0 0.0 0.0 0.0 0.0 0.0
0.0 0.0 0.0 0.0 0.0 0.0 0.0 0.0 0.0 0.0 0.0 0.0 0.0 0.0 0.0 0.0 0.0 0.0 0.0 0.0 0.0 0.0
0.0 0.0 0.0 0.0 0.0 0.0 0.0 0.0 0.0 0.0 0.0 0.0 0.0 0.0 0.0 0.0 0.0 0.1 0.1 0.1 0.1 0.0
0.0 0.0 0.0 0.0 0.0 0.0 0.0 0.0 0.0 0.0 0.0 0.0 0.0 0.0 0.0 0.0 0.0 0.0 0.4 0.1 0.2 0.1
0.0 0.0 0.0 0.0 0.0 0.0 0.0 0.0 0.0 0.0 0.0 0.0 0.0 0.0 0.0 0.0 0.0 0.0 0.0 0.0 0.0 0.0
0.0 0.0 0.0 0.0 0.0 0.0 0.0 0.0 0.0 0.0 0.0 0.0 0.0 0.0 0.0 0.0 0.0 0.0 0.0 0.0 0.0 0.0
0.0 0.0 0.0 0.0 0.0 0.0 0.0 0.0 0.0 0.0 0.0 0.0 0.0 0.0 0.0 0.0 0.0 0.0 0.0 0.0 0.0 0.0
0.0 0.0 0.0 0.0 0.0 0.0 0.0 0.0 0.0 0.0 0.0 0.0 0.0 0.0 0.0 0.0 0.0 0.0 0.0 0.0 0.0 0.0
0.0 0.0 0.0 0.0 0.0 0.0 0.0 0.0 0.0 0.0 0.0 0.0 0.0 0.1 0.0 0.0 0.0 0.0 0.0 0.0 0.0 0.0
1.4 0.0 0.9 0.9 0.0 0.1 0.2 0.0 0.0 0.1 0.1 0.0 0.3 0.0 0.0 0.0 0.0 0.0 0.0 0.0 0.0 0.0
1.1 1.9 2.6 2.6 1.5 1.3 0.6 0.6 0.8 1.3 0.4 0.2 1.1 0.6 0.7 0.8 0.8 0.8 0.0 0.9 1.0 1.0
2.5 1.6 1.5 1.2 1.0 0.9 1.1 0.8 1.8 0.9 0.8 1.0 1.5 2.1 2.4 2.8 1.2 0.8 0.9 1.4 0.9 0.9
1.5 1.8 3.5 2.7 4.1 5.4 2.5 2.9 3.3 6.0 2.9 4.7 1.6 2.7 4.6 2.3 3.1 1.3 5.7 2.7 2.8 3.9
5.6 7.4 7.4 7.0 7.8 11.3 13.1 9.8 4.5 5.5 7.0 7.2 5.3 7.7 9.3 4.7 8.2 7.3 3.9 4.7 2.8 4.3

GFSNIL_prec_snow_153.txt.gz
Snowfall_Accumulation
0.0 0.0 0.0 0.0 0.0 0.0 0.0 0.0 0.0 0.0 0.0 0.0 0.0 0.0 0.0 0.0 0.0 0.0 0.0 0.0 0.0 0.0
0.0 0.0 0.0 0.0 0.0 0.0 0.0 0.0 0.0 0.0 0.0 0.0 0.0 0.0 0.0 0.0 0.0 0.0 0.0 0.0 0.0 0.0
0.0 0.0 0.0 0.0 0.0 0.0 0.0 0.0 0.0 0.0 0.0 0.0 0.0 0.0 0.0 0.0 0.0 0.1 0.1 0.1 0.1 0.0
0.0 0.0 0.0 0.0 0.0 0.0 0.0 0.0 0.0 0.0 0.0 0.0 0.0 0.0 0.0 0.0 0.0 0.0 0.4 0.1 0.2 0.1
0.0 0.0 0.0 0.0 0.0 0.0 0.0 0.0 0.0 0.0 0.0 0.0 0.0 0.0 0.0 0.0 0.0 0.0 0.0 0.0 0.0 0.0
0.0 0.0 0.0 0.0 0.0 0.0 0.0 0.0 0.0 0.0 0.0 0.0 0.0 0.0 0.0 0.0 0.0 0.0 0.0 0.0 0.0 0.0
0.0 0.0 0.0 0.0 0.0 0.0 0.0 0.0 0.0 0.0 0.0 0.0 0.0 0.0 0.0 0.0 0.0 0.0 0.0 0.0 0.0 0.0
0.0 0.0 0.0 0.0 0.0 0.0 0.0 0.0 0.0 0.0 0.0 0.0 0.0 0.0 0.0 0.0 0.0 0.0 0.0 0.0 0.0 0.0
0.0 0.0 0.0 0.0 0.0 0.0 0.0 0.0 0.0 0.0 0.0 0.0 0.0 0.1 0.0 0.0 0.0 0.0 0.0 0.0 0.0 0.0
1.4 0.0 0.9 0.9 0.4 0.3 0.3 0.0 0.0 0.1 0.1 0.0 0.3 0.0 0.0 0.0 0.0 0.0 0.0 0.0 0.0 0.0
3.4 3.9 4.4 4.0 2.4 1.7 0.8 0.7 0.8 1.3 0.4 0.2 1.1 0.6 0.7 0.8 0.8 0.8 0.0 0.9 1.0 1.0
6.8 5.2 4.3 3.2 2.3 1.7 1.5 1.0 1.8 0.9 0.8 1.0 1.5 2.1 2.4 2.8 1.2 0.8 0.9 1.4 0.9 0.9
5.4 4.5 5.3 3.9 4.8 5.8 2.7 3.0 3.4 6.0 2.9 4.7 1.6 2.7 4.6 2.3 3.1 1.3 5.7 2.7 2.8 3.9
8.5 9.3 8.5 7.6 8.0 11.3 13.2 9.9 4.6 5.6 7.0 7.2 5.3 7.7 9.3 4.7 8.2 7.3 3.9 4.7 2.8 4.3

GFSNIL_prec_snow_156.txt.gz
Snowfall_Accumulation
0.0 0.0 0.0 0.0 0.0 0.0 0.0 0.0 0.0 0.0 0.0 0.0 0.0 0.0 0.0 0.0 0.0 0.0 0.0 0.0 0.0 0.0
0.0 0.0 0.0 0.0 0.0 0.0 0.0 0.0 0.0 0.0 0.0 0.0 0.0 0.0 0.0 0.0 0.0 0.0 0.0 0.0 0.0 0.0
0.0 0.0 0.0 0.0 0.0 0.0 0.0 0.0 0.0 0.0 0.0 0.0 0.0 0.0 0.0 0.0 0.0 0.1 0.1 0.1 0.1 0.0
0.0 0.0 0.0 0.0 0.0 0.0 0.0 0.0 0.0 0.0 0.0 0.0 0.0 0.0 0.0 0.0 0.0 0.0 0.4 0.1 0.2 0.1
0.0 0.0 0.0 0.0 0.0 0.0 0.0 0.0 0.0 0.0 0.0 0.0 0.0 0.0 0.0 0.0 0.0 0.0 0.0 0.0 0.0 0.0
0.0 0.0 0.0 0.0 0.0 0.0 0.0 0.0 0.0 0.0 0.0 0.0 0.0 0.0 0.0 0.0 0.0 0.0 0.0 0.0 0.0 0.0
0.0 0.0 0.0 0.0 0.0 0.0 0.0 0.0 0.0 0.0 0.0 0.0 0.0 0.0 0.0 0.0 0.0 0.0 0.0 0.0 0.0 0.0
0.0 0.0 0.0 0.0 0.0 0.0 0.0 0.0 0.0 0.0 0.0 0.0 0.0 0.0 0.0 0.0 0.0 0.0 0.0 0.0 0.0 0.0
0.0 0.0 0.0 0.0 0.0 0.0 0.0 0.0 0.0 0.0 0.0 0.0 0.2 0.1 0.0 0.0 0.0 0.0 0.0 0.0 0.0 0.0
1.4 0.0 0.9 0.9 0.4 0.8 0.8 0.5 0.5 0.4 0.4 0.2 0.4 0.0 0.0 0.0 0.0 0.0 0.0 0.0 0.0 0.0
4.1 4.7 5.0 4.9 3.8 3.2 2.0 1.6 1.6 1.7 0.6 0.3 1.1 0.6 0.7 0.8 0.8 0.8 0.0 0.9 1.0 1.0
8.6 7.4 6.6 5.9 4.8 3.8 3.2 2.6 2.8 1.2 0.9 1.0 1.5 2.1 2.4 2.8 1.2 0.8 0.9 1.4 0.9 0.9
8.8 8.0 8.7 6.9 7.2 7.8 4.4 4.1 3.8 6.2 3.0 4.7 1.7 2.7 4.6 2.3 3.1 1.3 5.7 2.7 2.8 3.9
12.1 12.5 11.3 9.8 9.6 12.6 14.1 10.4 4.8 5.7 7.0 7.2 5.3 7.7 9.3 4.7 8.2 7.3 3.9 4.7 2.8 4.3

GFSNIL_prec_snow_159.txt.gz
Snowfall_Accumulation
0.0 0.0 0.0 0.0 0.0 0.0 0.0 0.0 0.0 0.0 0.0 0.0 0.0 0.0 0.0 0.0 0.0 0.0 0.0 0.0 0.0 0.0
0.0 0.0 0.0 0.0 0.0 0.0 0.0 0.0 0.0 0.0 0.0 0.0 0.0 0.0 0.0 0.0 0.0 0.0 0.0 0.0 0.0 0.0
0.0 0.0 0.0 0.0 0.0 0.0 0.0 0.0 0.0 0.0 0.0 0.0 0.0 0.0 0.0 0.0 0.0 0.1 0.1 0.1 0.1 0.0
0.0 0.0 0.0 0.0 0.0 0.0 0.0 0.0 0.0 0.0 0.0 0.0 0.0 0.0 0.0 0.0 0.0 0.0 0.4 0.1 0.2 0.1
0.0 0.0 0.0 0.0 0.0 0.0 0.0 0.0 0.0 0.0 0.0 0.0 0.0 0.0 0.0 0.0 0.0 0.0 0.0 0.0 0.0 0.0
0.0 0.0 0.0 0.0 0.0 0.0 0.0 0.0 0.0 0.0 0.0 0.0 0.0 0.0 0.0 0.0 0.0 0.0 0.0 0.0 0.0 0.0
0.0 0.0 0.0 0.0 0.0 0.0 0.0 0.0 0.0 0.0 0.0 0.0 0.0 0.0 0.0 0.0 0.0 0.0 0.0 0.0 0.0 0.0
0.0 0.0 0.0 0.0 0.0 0.0 0.0 0.0 0.0 0.0 0.0 0.0 0.0 0.0 0.0 0.0 0.1 0.0 0.0 0.0 0.0 0.0
0.0 0.0 0.0 0.0 0.0 0.0 0.0 0.0 0.0 0.0 0.0 0.0 0.2 0.7 0.0 0.1 0.1 0.0 0.0 0.0 0.0 0.0
1.4 0.0 0.9 0.9 1.3 1.6 1.2 0.8 1.0 1.1 1.0 1.0 1.5 0.5 0.2 0.1 0.1 0.0 0.0 0.0 0.0 0.0
4.1 4.7 6.1 6.3 5.2 4.2 2.9 2.7 2.8 2.7 1.8 1.5 1.6 0.6 0.8 0.9 0.8 0.8 0.0 0.9 1.0 1.0
9.3 8.5 8.1 7.6 6.7 5.7 4.9 4.6 4.7 2.8 2.6 1.8 1.8 2.1 2.4 2.8 1.2 0.8 0.9 1.4 0.9 0.9
9.9 9.4 10.6 8.9 9.3 9.8 6.4 6.2 5.3 7.9 4.3 5.0 1.8 2.8 4.6 2.3 3.1 1.3 5.7 2.7 2.8 3.9
12.9 13.7 12.7 11.3 11.1 14.4 15.8 11.7 6.2 7.3 7.8 7.4 5.4 7.7 9.3 4.7 8.2 7.3 3.9 4.7 2.8 4.3

GFSNIL_prec_snow_165.txt.gz
Snowfall_Accumulation
0.0 0.0 0.0 0.0 0.0 0.0 0.0 0.0 0.0 0.0 0.0 0.0 0.0 0.0 0.0 0.0 0.0 0.0 0.0 0.0 0.0 0.0
0.0 0.0 0.0 0.0 0.0 0.0 0.0 0.0 0.0 0.0 0.0 0.0 0.0 0.0 0.0 0.0 0.0 0.0 0.0 0.0 0.0 0.0
0.0 0.0 0.0 0.0 0.0 0.0 0.0 0.0 0.0 0.0 0.0 0.0 0.0 0.0 0.0 0.0 0.0 0.1 0.1 0.1 0.1 0.0
0.0 0.0 0.0 0.0 0.0 0.0 0.0 0.0 0.0 0.0 0.0 0.0 0.0 0.0 0.0 0.0 0.0 0.0 0.4 0.1 0.2 0.1
0.0 0.0 0.0 0.0 0.0 0.0 0.0 0.0 0.0 0.0 0.0 0.0 0.0 0.0 0.0 0.0 0.0 0.0 0.0 0.0 0.0 0.0
0.0 0.0 0.0 0.0 0.0 0.0 0.0 0.0 0.0 0.0 0.0 0.0 0.0 0.0 0.0 0.0 0.0 0.0 0.1 0.1 0.1 0.1
0.0 0.0 0.0 0.0 0.0 0.0 0.0 0.0 0.0 0.0 0.0 0.0 0.0 0.0 0.0 0.0 0.0 0.0 0.0 0.3 0.1 0.0
0.0 0.0 0.0 0.0 0.0 0.0 0.0 0.0 0.0 0.0 0.0 0.0 0.0 0.0 0.0 0.0 0.1 0.3 0.5 0.2 0.2 0.0
0.0 0.0 0.0 0.0 0.0 0.0 0.0 0.0 0.0 0.4 0.0 0.0 0.4 0.7 0.0 0.4 0.4 0.6 0.0 0.5 0.1 0.0
1.4 0.0 0.9 0.9 1.3 1.6 1.2 0.8 1.7 1.8 1.7 2.5 2.5 1.3 0.6 0.4 0.3 0.3 0.6 0.2 0.0 0.0
4.1 4.7 6.1 6.3 5.9 5.2 4.0 3.6 3.8 5.1 4.2 3.6 3.4 2.1 2.1 2.2 2.3 1.9 0.7 1.2 1.1 1.0
9.3 8.5 8.1 8.8 8.1 7.3 7.0 5.9 6.5 5.0 5.1 4.0 3.4 3.5 3.4 4.0 2.5 1.8 1.5 1.6 0.9 0.9
9.9 9.4 10.6 8.9 10.4 11.0 7.6 7.2 6.6 9.9 6.5 6.6 3.0 4.0 5.8 3.4 4.4 2.1 6.0 2.7 2.8 3.9
12.9 13.7 12.7 11.7 11.5 14.9 16.5 12.8 7.7 9.0 9.4 8.6 6.6 9.5 10.9 5.7 8.8 7.6 3.9 4.7 2.8 4.3

GFSNIL_prec_snow_168.txt.gz
Snowfall_Accumulation
0.0 0.0 0.0 0.0 0.0 0.0 0.0 0.0 0.0 0.0 0.0 0.0 0.0 0.0 0.0 0.0 0.0 0.0 0.0 0.0 0.0 0.0
0.0 0.0 0.0 0.0 0.0 0.0 0.0 0.0 0.0 0.0 0.0 0.0 0.0 0.0 0.0 0.0 0.0 0.0 0.0 0.0 0.0 0.0
0.0 0.0 0.0 0.0 0.0 0.0 0.0 0.0 0.0 0.0 0.0 0.0 0.0 0.0 0.0 0.0 0.0 0.1 0.1 0.1 0.1 0.0
0.0 0.0 0.0 0.0 0.0 0.0 0.0 0.0 0.0 0.0 0.0 0.0 0.0 0.0 0.0 0.0 0.0 0.0 0.4 0.1 0.2 0.1
0.0 0.0 0.0 0.0 0.0 0.0 0.0 0.0 0.0 0.0 0.0 0.0 0.0 0.0 0.0 0.0 0.0 0.0 0.0 0.0 0.0 0.0
0.0 0.0 0.0 0.0 0.0 0.0 0.0 0.0 0.0 0.0 0.0 0.0 0.0 0.0 0.0 0.0 0.0 0.0 0.1 0.1 0.1 0.1
0.0 0.0 0.0 0.0 0.0 0.0 0.0 0.0 0.0 0.0 0.0 0.0 0.0 0.0 0.0 0.0 0.0 0.0 0.0 0.3 0.1 0.0
0.0 0.0 0.0 0.0 0.0 0.0 0.0 0.0 0.0 0.0 0.0 0.0 0.0 0.0 0.0 0.0 0.1 0.3 0.5 0.2 0.2 0.0
0.0 0.0 0.0 0.0 0.0 0.0 0.0 0.0 0.0 0.4 0.0 0.0 0.4 0.7 0.0 0.4 0.5 0.6 0.0 0.5 0.1 0.0
1.4 0.0 0.9 0.9 1.3 1.6 1.2 0.8 1.7 1.8 1.7 2.5 2.5 2.2 1.0 0.5 0.3 0.3 0.7 0.2 0.0 0.0
4.1 4.7 6.1 6.3 5.9 5.2 4.0 3.6 3.8 5.1 4.2 4.3 4.3 2.6 2.2 2.3 2.4 2.2 1.4 2.0 1.8 1.5
9.3 8.5 8.1 8.8 8.1 7.3 7.0 5.9 6.5 5.0 5.1 4.5 3.8 3.7 3.5 4.3 3.0 2.4 2.1 2.2 1.4 1.2
9.9 9.4 10.6 8.9 10.4 11.0 7.6 7.2 6.6 10.2 6.7 6.6 3.3 4.0 6.2 4.0 5.0 2.8 6.6 3.1 3.0 3.9
12.9 13.7 12.7 11.7 11.5 14.9 16.5 12.9 7.9 9.1 9.4 8.6 6.6 10.1 11.5 6.3 9.5 8.2 4.5 4.9 2.8 4.4

GFSNIL_prec_snow_171.txt.gz
Snowfall_Accumulation
0.0 0.0 0.0 0.0 0.0 0.0 0.0 0.0 0.0 0.0 0.0 0.0 0.0 0.0 0.0 0.0 0.0 0.0 0.0 0.0 0.0 0.0
0.0 0.0 0.0 0.0 0.0 0.0 0.0 0.0 0.0 0.0 0.0 0.0 0.0 0.0 0.0 0.0 0.0 0.0 0.0 0.0 0.0 0.0
0.0 0.0 0.0 0.0 0.0 0.0 0.0 0.0 0.0 0.0 0.0 0.0 0.0 0.0 0.0 0.0 0.0 0.1 0.1 0.1 0.1 0.0
0.0 0.0 0.0 0.0 0.0 0.0 0.0 0.0 0.0 0.0 0.0 0.0 0.0 0.0 0.0 0.0 0.0 0.0 0.4 0.1 0.2 0.1
0.0 0.0 0.0 0.0 0.0 0.0 0.0 0.0 0.0 0.0 0.0 0.0 0.0 0.0 0.0 0.0 0.0 0.0 0.0 0.0 0.0 0.0
0.0 0.0 0.0 0.0 0.0 0.0 0.0 0.0 0.0 0.0 0.0 0.0 0.0 0.0 0.0 0.0 0.0 0.0 0.1 0.1 0.1 0.1
0.0 0.0 0.0 0.0 0.0 0.0 0.0 0.0 0.0 0.0 0.0 0.0 0.0 0.0 0.0 0.0 0.0 0.0 0.0 0.3 0.1 0.0
0.0 0.0 0.0 0.0 0.0 0.0 0.0 0.0 0.0 0.0 0.0 0.0 0.0 0.0 0.0 0.0 0.1 0.3 0.5 0.2 0.2 0.0
0.0 0.0 0.0 0.0 0.0 0.0 0.0 0.0 0.0 0.4 0.0 0.0 0.4 0.7 0.0 0.4 0.5 0.7 0.0 0.5 0.1 0.0
1.4 0.0 0.9 0.9 1.3 1.6 1.2 0.8 1.7 1.8 1.7 2.5 2.5 2.2 1.0 0.5 0.3 0.3 0.7 0.2 0.0 0.0
4.1 4.7 6.1 6.3 5.9 5.2 4.0 3.6 3.8 5.1 4.2 4.3 4.3 2.9 2.5 2.5 2.6 2.3 1.4 2.0 1.8 1.5
9.3 8.5 8.1 8.8 8.1 7.3 7.0 5.9 6.5 5.0 5.1 4.5 3.8 3.8 3.6 4.3 3.0 2.4 2.1 2.2 1.4 1.2
9.9 9.4 10.6 8.9 10.4 11.0 7.6 7.2 6.6 10.2 6.7 6.7 3.3 4.0 6.2 4.0 5.0 2.9 6.7 3.2 3.0 3.9
12.9 13.7 12.7 11.7 11.5 14.9 16.5 12.9 7.9 9.1 9.5 8.7 6.7 10.2 11.5 6.4 9.6 8.2 4.5 4.9 2.8 4.4

GFSNIL_prec_snow_174.txt.gz
Snowfall_Accumulation
0.0 0.0 0.0 0.0 0.0 0.0 0.0 0.0 0.0 0.0 0.0 0.0 0.0 0.0 0.0 0.0 0.0 0.0 0.0 0.0 0.0 0.0
0.0 0.0 0.0 0.0 0.0 0.0 0.0 0.0 0.0 0.0 0.0 0.0 0.0 0.0 0.0 0.0 0.0 0.0 0.0 0.0 0.0 0.0
0.0 0.0 0.0 0.0 0.0 0.0 0.0 0.0 0.0 0.0 0.0 0.0 0.0 0.0 0.0 0.0 0.0 0.1 0.1 0.1 0.1 0.0
0.0 0.0 0.0 0.0 0.0 0.0 0.0 0.0 0.0 0.0 0.0 0.0 0.0 0.0 0.0 0.0 0.0 0.0 0.4 0.1 0.2 0.1
0.0 0.0 0.0 0.0 0.0 0.0 0.0 0.0 0.0 0.0 0.0 0.0 0.0 0.0 0.0 0.0 0.0 0.0 0.0 0.0 0.0 0.0
0.0 0.0 0.0 0.0 0.0 0.0 0.0 0.0 0.0 0.0 0.0 0.0 0.0 0.0 0.0 0.0 0.0 0.0 0.1 0.1 0.1 0.1
0.0 0.0 0.0 0.0 0.0 0.0 0.0 0.0 0.0 0.0 0.0 0.0 0.0 0.0 0.0 0.0 0.0 0.0 0.0 0.3 0.1 0.0
0.0 0.0 0.0 0.0 0.0 0.0 0.0 0.0 0.0 0.0 0.0 0.0 0.0 0.0 0.0 0.0 0.1 0.3 0.5 0.2 0.2 0.0
0.0 0.0 0.0 0.0 0.0 0.0 0.0 0.0 0.0 0.4 0.0 0.0 0.4 0.7 0.0 0.4 0.5 0.7 0.0 0.5 0.1 0.0
1.4 0.0 0.9 0.9 1.3 1.6 1.2 0.8 1.7 1.8 1.7 2.5 2.5 2.2 1.0 0.5 0.3 0.3 0.7 0.2 0.0 0.0
4.1 4.7 6.1 6.3 5.9 5.2 4.0 3.6 3.8 5.1 4.2 4.3 4.3 2.9 2.5 2.5 2.6 2.3 1.4 2.0 1.8 1.5
9.3 8.5 8.1 8.8 8.1 7.3 7.0 5.9 6.5 5.0 5.1 4.5 3.8 3.8 3.6 4.3 3.0 2.4 2.2 2.2 1.4 1.2
9.9 9.4 10.6 8.9 10.4 11.0 7.6 7.2 6.6 10.2 6.7 6.7 3.3 4.0 6.2 4.0 5.0 2.9 6.7 3.2 3.0 3.9
12.9 13.7 12.7 11.7 11.5 14.9 16.5 12.9 7.9 9.1 9.5 8.7 6.7 10.2 11.6 6.4 9.7 8.3 4.5 4.9 2.8 4.4

GFSNIL_prec_snow_177.txt.gz
Snowfall_Accumulation
0.0 0.0 0.0 0.0 0.0 0.0 0.0 0.0 0.0 0.0 0.0 0.0 0.0 0.0 0.0 0.0 0.0 0.0 0.0 0.0 0.0 0.0
0.0 0.0 0.0 0.0 0.0 0.0 0.0 0.0 0.0 0.0 0.0 0.0 0.0 0.0 0.0 0.0 0.0 0.0 0.0 0.0 0.0 0.0
0.0 0.0 0.0 0.0 0.0 0.0 0.0 0.0 0.0 0.0 0.0 0.0 0.0 0.0 0.0 0.0 0.0 0.1 0.1 0.1 0.1 0.0
0.0 0.0 0.0 0.0 0.0 0.0 0.0 0.0 0.0 0.0 0.0 0.0 0.0 0.0 0.0 0.0 0.0 0.0 0.4 0.1 0.2 0.1
0.0 0.0 0.0 0.0 0.0 0.0 0.0 0.0 0.0 0.0 0.0 0.0 0.0 0.0 0.0 0.0 0.0 0.0 0.0 0.0 0.0 0.0
0.0 0.0 0.0 0.0 0.0 0.0 0.0 0.0 0.0 0.0 0.0 0.0 0.0 0.0 0.0 0.0 0.0 0.0 0.1 0.1 0.1 0.1
0.0 0.0 0.0 0.0 0.0 0.0 0.0 0.0 0.0 0.0 0.0 0.0 0.0 0.0 0.0 0.0 0.0 0.0 0.0 0.3 0.1 0.0
0.0 0.0 0.0 0.0 0.0 0.0 0.0 0.0 0.0 0.0 0.0 0.0 0.0 0.0 0.0 0.0 0.1 0.3 0.5 0.2 0.2 0.0
0.0 0.0 0.0 0.0 0.0 0.0 0.0 0.0 0.0 0.4 0.0 0.0 0.4 0.7 0.0 0.4 0.5 0.7 0.0 0.5 0.1 0.0
1.4 0.0 0.9 0.9 1.3 1.6 1.2 0.8 1.7 1.8 1.7 2.5 2.5 2.2 1.0 0.5 0.3 0.3 0.7 0.2 0.0 0.0
4.1 4.7 6.1 6.3 5.9 5.2 4.0 3.6 3.8 5.1 4.2 4.3 4.3 2.9 2.5 2.5 2.6 2.3 1.4 2.0 1.8 1.5
9.3 8.5 8.1 8.8 8.1 7.3 7.0 5.9 6.5 5.0 5.1 4.5 3.8 3.8 3.6 4.3 3.0 2.4 2.2 2.2 1.4 1.2
9.9 9.4 10.6 8.9 10.4 11.0 7.6 7.2 6.6 10.2 6.7 6.7 3.3 4.0 6.2 4.0 5.0 3.0 6.8 3.2 3.0 3.9
12.9 13.7 12.7 11.7 11.5 14.9 16.5 12.9 7.9 9.1 9.5 8.7 6.7 10.2 11.6 6.4 9.7 8.3 4.5 4.9 2.8 4.4